Regional Weather Roundup
Issued by NWS Bismarck, ND

Current Version | Previous Version | Text Only | Print | Product List | Glossary On
Versions: 1 2 3 4 5 6 7 8 9 10 11 12 13 14 15 16 17 18 19 20 21 22 23 24 25 26 27 28 29 30 31 32 33 34 35 36 37 38 39 40 41 42 43 44 45 46 47 48 49 50
000
ASUS43 KBIS 221810
RWRBIS

NWR BROADCAST TEXT
NATIONAL WEATHER SERVICE BISMARCK ND
100 PM CDT TUE MAY 22 2018

NOTE: "FAIR" INDICATES FEW OR NO CLOUDS BELOW 12,000 FEET WITH NO
SIGNIFICANT WEATHER AND/OR OBSTRUCTIONS TO VISIBILITY.


CITY           SKY/WX    TMP DP  RH WIND       PRES   REMARKS
WILLISTON      CLOUDY    72  53  51 SW6       29.93S
MINOT          SUNNY     83  48  29 S14       29.92S
MINOT AFB      SUNNY     82  45  26 SW8       29.90S
BISMARCK       SUNNY     79  47  32 S7        29.95F
DICKINSON      CLOUDY    73  49  42 SE8       29.95S
GARRISON         N/A     76  48  37 S9        29.94S
HETTINGER ARPT MOSUNNY   76  53  44 SE9       29.97S
JAMESTOWN      SUNNY     77  54  44 S9        29.96F
CARRINGTON     FAIR      77  48  36 S13       29.98F
HAZEN          FAIR      79  48  34 SE5       29.96S
LINTON           N/A    N/A N/A N/A S13G18    29.96F
MANDAN         FAIR      77  54  44 E9        29.96F
OAKES            N/A     77  57  50 S9G15     29.98F
STANLEY          N/A     79  48  34 S13       29.96S HAZE
TIOGA          FAIR      77  45  31 SW12      29.95S
WATFORD CITY   FAIR      79  52  38 VRB7      29.92F
$$

CITY           SKY/WX    TMP DP  RH WIND       PRES   REMARKS
GRAND FORKS    FAIR      74  58  57 S9        29.98F
GRAND FORKS AF FAIR      75  58  55 S3        29.98F
DEVILS LAKE    CLOUDY    74  54  49 VRB6      29.98S
FARGO          FAIR      72  57  59 S9        30.00F
CANDO          FAIR      77  54  44 SE10G18   29.97S
CAVALIER         N/A     77  55  47 S9G17     29.96S
GRAFTON        FAIR      77  57  50 S12       29.99F
GWINNER          N/A     75  55  50 VRB5G12   29.98F
LANGDON        MOCLDY    77  54  44 SW12G17   29.98S
ROLLA          FAIR      77  46  33 VRB5G14   29.96S
WALHALLA       FAIR      77  54  44 S13       29.96S
$$

CITY           SKY/WX    TMP DP  RH WIND       PRES   REMARKS
ABERDEEN       MOSUNNY   81  55  40 CALM      29.96S
MOBRIDGE       SUNNY     78  63  59 S8        29.92F
BUFFALO          N/A     77  54  44 NE12      29.89F
RAPID CITY     SUNNY     75  56  51 NE3       29.96F
GLASGOW        MOSUNNY   79  48  33 SW6       29.93F
SIDNEY         CLOUDY    71  58  63 N9        29.94S
WOLF POINT     CLOUDY    73  56  54 NW6       29.96R
GLENDIVE       CLOUDY    68  57  68 NW5       29.97R
MILES CITY     SUNNY     72  60  66 S5        29.96S
BAKER          SUNNY     74  51  44 SE10      29.98R
$$

CITY           SKY/WX    TMP DP  RH WIND       PRES   REMARKS
BILLINGS       PTSUNNY   71  52  50 NE6       30.00S
GREAT FALLS    LGT RAIN  63  53  70 SW7       30.04R
REGINA         MOSUNNY   81  46  30 VRB3      29.89S
ESTEVAN        PTSUNNY   81  46  30 SE10G17   29.90F
$$





USA.gov is the U.S. government's official web portal to all federal, state and local government web resources and services.